Time,TemperatureF,DewpointF,PressureIn,WindDirection,WindDirectionDegrees,WindSpeedMPH,WindSpeedGustMPH,Humidity,HourlyPrecipIn,Conditions,Clouds,dailyrainin,SoftwareType,DateUTC
2013-04-07 00:09:00,54.9,51.1,29.76,SSW,202,9.4,-999.0,87,-99.99,,,0.00,Acu-Link.com,2013-04-07 07:09:00,
2013-04-07 00:24:00,54.1,51.2,29.76,SSW,202,7.3,-999.0,90,-99.99,,,0.00,Acu-Link.com,2013-04-07 07:24:00,
2013-04-07 00:39:00,54.5,51.3,29.76,SW,225,14.0,-999.0,89,-99.99,,,0.01,Acu-Link.com,2013-04-07 07:39:00,
2013-04-07 01:09:00,54.7,51.2,29.78,SW,225,7.8,-999.0,88,-99.99,,,0.01,Acu-Link.com,2013-04-07 08:09:00,
2013-04-07 01:24:00,54.3,50.8,29.78,West,270,15.5,-999.0,88,-99.99,,,0.01,Acu-Link.com,2013-04-07 08:24:00,
2013-04-07 01:39:00,54.3,51.1,29.77,WSW,247,17.6,-999.0,89,-99.99,,,0.01,Acu-Link.com,2013-04-07 08:39:00,
2013-04-07 02:10:00,53.4,50.2,29.80,West,270,14.0,-999.0,89,-99.99,,,0.02,Acu-Link.com,2013-04-07 09:10:00,
2013-04-07 02:40:00,52.7,49.5,29.81,SSW,202,11.9,-999.0,89,-99.99,,,0.02,Acu-Link.com,2013-04-07 09:40:00,
2013-04-07 02:55:00,52.3,49.5,29.81,West,270,14.5,-999.0,90,-99.99,,,0.02,Acu-Link.com,2013-04-07 09:55:00,
2013-04-07 03:11:00,51.4,49.2,29.82,WSW,247,9.4,-999.0,92,-99.99,,,0.03,Acu-Link.com,2013-04-07 10:11:00,
2013-04-07 03:26:00,50.2,48.5,29.84,WSW,247,16.6,-999.0,94,-99.99,,,0.05,Acu-Link.com,2013-04-07 10:26:00,
2013-04-07 03:41:00,49.6,48.2,29.85,SW,225,15.5,-999.0,95,-99.99,,,0.09,Acu-Link.com,2013-04-07 10:41:00,
2013-04-07 04:12:00,49.1,47.7,29.88,WSW,247,11.4,-999.0,95,-99.99,,,0.10,Acu-Link.com,2013-04-07 11:12:00,
2013-04-07 04:27:00,48.7,47.3,29.88,SW,225,10.4,-999.0,95,-99.99,,,0.10,Acu-Link.com,2013-04-07 11:27:00,
2013-04-07 04:42:00,48.7,48.2,29.89,WSW,247,9.4,-999.0,98,-99.99,,,0.10,Acu-Link.com,2013-04-07 11:42:00,
2013-04-07 04:57:00,48.4,47.0,29.89,SW,225,9.4,-999.0,95,-99.99,,,0.10,Acu-Link.com,2013-04-07 11:57:00,
2013-04-07 05:12:00,48.2,47.4,29.90,WSW,247,5.8,-999.0,97,-99.99,,,0.12,Acu-Link.com,2013-04-07 12:12:00,
2013-04-07 05:27:00,47.8,47.0,29.91,WSW,247,10.4,-999.0,97,-99.99,,,0.16,Acu-Link.com,2013-04-07 12:27:00,
2013-04-07 05:42:00,48.0,46.6,29.91,SW,225,7.3,-999.0,95,-99.99,,,0.16,Acu-Link.com,2013-04-07 12:42:00,
2013-04-07 05:57:00,48.0,46.4,29.90,SW,225,4.7,-999.0,94,-99.99,,,0.16,Acu-Link.com,2013-04-07 12:57:00,
2013-04-07 06:13:00,47.8,46.4,29.91,SW,225,8.3,-999.0,95,-99.99,,,0.17,Acu-Link.com,2013-04-07 13:13:00,
2013-04-07 06:28:00,47.3,45.9,29.92,West,270,8.3,-999.0,95,-99.99,,,0.17,Acu-Link.com,2013-04-07 13:28:00,
2013-04-07 06:43:00,47.1,45.7,29.92,West,270,5.8,-999.0,95,-99.99,,,0.20,Acu-Link.com,2013-04-07 13:43:00,
2013-04-07 06:58:00,47.3,45.9,29.92,SSW,202,5.3,-999.0,95,-99.99,,,0.23,Acu-Link.com,2013-04-07 13:58:00,
2013-04-07 07:14:00,46.8,45.4,29.93,West,270,3.7,-999.0,95,-99.99,,,0.29,Acu-Link.com,2013-04-07 14:14:00,
2013-04-07 07:29:00,46.9,45.3,29.94,WSW,247,8.3,-999.0,94,-99.99,,,0.31,Acu-Link.com,2013-04-07 14:29:00,
2013-04-07 07:59:00,45.5,43.3,29.95,West,270,6.3,-999.0,92,-99.99,,,0.46,Acu-Link.com,2013-04-07 14:59:00,
2013-04-07 08:14:00,45.9,44.3,29.95,WSW,247,2.7,-999.0,94,-99.99,,,0.52,Acu-Link.com,2013-04-07 15:14:00,
2013-04-07 08:29:00,47.1,45.5,29.95,WSW,247,3.7,-999.0,94,-99.99,,,0.53,Acu-Link.com,2013-04-07 15:29:00,
2013-04-07 08:45:00,47.5,45.9,29.95,SW,225,4.2,-999.0,94,-99.99,,,0.53,Acu-Link.com,2013-04-07 15:45:00,
2013-04-07 09:00:00,47.8,45.9,29.95,West,270,9.9,-999.0,93,-99.99,,,0.53,Acu-Link.com,2013-04-07 16:00:00,
2013-04-07 09:15:00,47.3,45.7,29.95,SW,225,7.3,-999.0,94,-99.99,,,0.56,Acu-Link.com,2013-04-07 16:15:00,
2013-04-07 09:30:00,45.9,43.4,29.96,NW,315,4.2,-999.0,91,-99.99,,,0.56,Acu-Link.com,2013-04-07 16:30:00,
2013-04-07 09:46:00,47.3,45.4,29.96,NNW,337,2.2,-999.0,93,-99.99,,,0.56,Acu-Link.com,2013-04-07 16:46:00,
2013-04-07 10:16:00,50.4,46.1,29.97,SW,225,8.3,-999.0,85,-99.99,,,0.56,Acu-Link.com,2013-04-07 17:16:00,
2013-04-07 10:31:00,50.4,46.1,29.96,SW,225,6.3,-999.0,85,-99.99,,,0.56,Acu-Link.com,2013-04-07 17:31:00,
2013-04-07 10:46:00,51.4,46.4,29.95,SW,225,5.3,-999.0,83,-99.99,,,0.56,Acu-Link.com,2013-04-07 17:46:00,
2013-04-07 11:01:00,50.9,45.9,29.96,NNE,22,7.3,-999.0,83,-99.99,,,0.56,Acu-Link.com,2013-04-07 18:01:00,
2013-04-07 11:17:00,51.3,45.3,29.96,SW,225,7.8,-999.0,80,-99.99,,,0.56,Acu-Link.com,2013-04-07 18:17:00,
2013-04-07 11:32:00,50.9,44.6,29.95,SW,225,8.3,-999.0,79,-99.99,,,0.56,Acu-Link.com,2013-04-07 18:32:00,
2013-04-07 11:47:00,51.8,45.2,29.95,WSW,247,15.5,-999.0,78,-99.99,,,0.56,Acu-Link.com,2013-04-07 18:47:00,
2013-04-07 12:02:00,51.1,45.5,29.95,WSW,247,10.4,-999.0,81,-99.99,,,0.56,Acu-Link.com,2013-04-07 19:02:00,
2013-04-07 12:17:00,48.2,43.9,29.96,West,270,4.7,-999.0,85,-99.99,,,0.56,Acu-Link.com,2013-04-07 19:17:00,
2013-04-07 12:32:00,48.6,45.2,29.95,West,270,3.7,-999.0,88,-99.99,,,0.57,Acu-Link.com,2013-04-07 19:32:00,
2013-04-07 13:03:00,50.5,48.3,29.94,West,270,3.2,-999.0,92,-99.99,,,0.61,Acu-Link.com,2013-04-07 20:03:00,
2013-04-07 13:18:00,52.5,46.8,29.93,SE,135,3.7,-999.0,81,-99.99,,,0.61,Acu-Link.com,2013-04-07 20:18:00,
2013-04-07 13:33:00,52.9,45.2,29.93,SSW,202,7.3,-999.0,75,-99.99,,,0.62,Acu-Link.com,2013-04-07 20:33:00,
2013-04-07 13:48:00,52.0,44.3,29.93,WSW,247,3.7,-999.0,75,-99.99,,,0.62,Acu-Link.com,2013-04-07 20:48:00,
2013-04-07 14:19:00,51.8,44.5,29.92,WSW,247,5.3,-999.0,76,-99.99,,,0.62,Acu-Link.com,2013-04-07 21:19:00,
2013-04-07 14:49:00,50.4,44.8,29.92,WNW,292,5.3,-999.0,81,-99.99,,,0.62,Acu-Link.com,2013-04-07 21:49:00,
2013-04-07 15:05:00,49.1,44.2,29.92,NNE,22,4.2,-999.0,83,-99.99,,,0.62,Acu-Link.com,2013-04-07 22:05:00,
2013-04-07 15:35:00,43.9,42.3,29.95,NNE,22,3.7,-999.0,94,-99.99,,,0.84,Acu-Link.com,2013-04-07 22:35:00,
2013-04-07 16:05:00,45.1,43.5,29.93,ENE,67,0.0,-999.0,94,-99.99,,,0.87,Acu-Link.com,2013-04-07 23:05:00,
2013-04-07 16:20:00,45.3,44.0,29.91,SSE,157,0.0,-999.0,95,-99.99,,,0.90,Acu-Link.com,2013-04-07 23:20:00,
2013-04-07 16:35:00,45.5,45.0,29.92,South,180,0.0,-999.0,98,-99.99,,,0.90,Acu-Link.com,2013-04-07 23:35:00,
2013-04-07 17:06:00,45.3,44.0,29.92,ESE,112,1.1,-999.0,95,-99.99,,,0.92,Acu-Link.com,2013-04-08 00:06:00,
2013-04-07 17:37:00,45.0,43.9,29.92,ESE,112,0.0,-999.0,96,-99.99,,,0.99,Acu-Link.com,2013-04-08 00:37:00,
2013-04-07 17:52:00,45.0,44.2,29.92,NW,315,3.2,-999.0,97,-99.99,,,1.03,Acu-Link.com,2013-04-08 00:52:00,
2013-04-07 18:07:00,43.5,41.6,29.92,ESE,112,0.0,-999.0,93,-99.99,,,1.10,Acu-Link.com,2013-04-08 01:07:00,
2013-04-07 18:23:00,43.5,41.9,29.90,ESE,112,0.0,-999.0,94,-99.99,,,1.15,Acu-Link.com,2013-04-08 01:23:00,
2013-04-07 18:38:00,43.3,42.0,29.90,SE,135,0.0,-999.0,95,-99.99,,,1.16,Acu-Link.com,2013-04-08 01:38:00,
2013-04-07 18:53:00,43.3,42.5,29.90,NNW,337,2.2,-999.0,97,-99.99,,,1.18,Acu-Link.com,2013-04-08 01:53:00,
2013-04-07 19:39:00,42.6,42.1,29.89,WNW,292,0.0,-999.0,98,-99.99,,,1.26,Acu-Link.com,2013-04-08 02:39:00,
2013-04-07 19:54:00,42.4,41.9,29.88,NNE,22,2.7,-999.0,98,-99.99,,,1.26,Acu-Link.com,2013-04-08 02:54:00,
2013-04-07 20:25:00,42.1,41.6,29.88,SW,225,0.0,-999.0,98,-99.99,,,1.31,Acu-Link.com,2013-04-08 03:25:00,
2013-04-07 20:40:00,41.7,41.2,29.89,ESE,112,0.0,-999.0,98,-99.99,,,1.31,Acu-Link.com,2013-04-08 03:40:00,
2013-04-07 21:11:00,42.3,41.8,29.90,SW,225,0.0,-999.0,98,-99.99,,,1.35,Acu-Link.com,2013-04-08 04:11:00,
2013-04-07 21:41:00,42.1,41.6,29.92,SE,135,0.0,-999.0,98,-99.99,,,1.38,Acu-Link.com,2013-04-08 04:41:00,
2013-04-07 21:56:00,41.9,41.4,29.92,SW,225,0.0,-999.0,98,-99.99,,,1.38,Acu-Link.com,2013-04-08 04:56:00,
2013-04-07 22:12:00,41.4,40.9,29.93,WNW,292,0.0,-999.0,98,-99.99,,,1.38,Acu-Link.com,2013-04-08 05:12:00,
2013-04-07 22:27:00,41.7,41.2,29.94,NE,45,0.0,-999.0,98,-99.99,,,1.38,Acu-Link.com,2013-04-08 05:27:00,
2013-04-07 22:43:00,41.5,41.0,29.95,ESE,112,0.0,-999.0,98,-99.99,,,1.38,Acu-Link.com,2013-04-08 05:43:00,
2013-04-07 22:58:00,40.6,40.1,29.94,East,90,0.0,-999.0,98,-99.99,,,1.38,Acu-Link.com,2013-04-08 05:58:00,
2013-04-07 23:13:00,40.8,40.3,29.95,SSW,202,0.0,-999.0,98,-99.99,,,1.42,Acu-Link.com,2013-04-08 06:13:00,
2013-04-07 23:44:00,41.0,40.5,29.97,ENE,67,2.2,-999.0,98,-99.99,,,1.42,Acu-Link.com,2013-04-08 06:44:00,
2013-04-07 23:59:00,41.2,40.7,29.97,ESE,112,1.1,-999.0,98,-99.99,,,1.45,Acu-Link.com,2013-04-08 06:59:00,